times,Lat,Lon,Elv,BTT,BTRH,PM2.5,PRHI,O3,PMF,O3F,GPF,BUS,ROW_F,COL_F
2021-09-28 16:47:05,40.769764,-111.850365,163.8,22.87,23.75,5.0,28.0,NaN,0,0,0,1,320.0,350.0
2021-09-28 16:47:10,40.769764,-111.850334,163.8,22.87,23.78,5.0,28.0,NaN,0,0,0,1,320.0,350.0
2021-09-28 16:47:15,40.769783,-111.850288,163.8,22.91,23.78,5.0,28.0,NaN,0,0,0,1,320.0,350.0
2021-09-28 16:47:20,40.769806,-111.850227,163.8,22.87,23.75,5.0,27.0,NaN,0,0,0,1,320.0,350.0
2021-09-28 16:47:25,40.769833,-111.850174,163.8,22.87,23.71,5.0,27.0,NaN,0,0,0,1,320.0,350.0
2021-09-28 16:47:30,40.769848,-111.850143,163.8,22.87,23.71,5.0,27.0,NaN,0,0,0,1,320.0,350.0
2021-09-28 16:47:35,40.769848,-111.850159,163.9,22.8,23.71,5.0,27.0,NaN,0,0,0,1,320.0,350.0
2021-09-28 16:47:40,40.769798,-111.850266,163.9,22.94,23.71,5.0,27.0,NaN,0,0,0,1,320.0,350.0
2021-09-28 16:47:45,40.769775,-111.850334,164.0,22.91,23.75,5.0,27.0,NaN,0,0,0,1,320.0,350.0
2021-09-28 16:47:50,40.769756,-111.850395,164.0,22.87,23.71,5.0,27.0,NaN,0,0,0,1,320.0,350.0
2021-09-28 16:47:55,40.769749,-111.850456,164.1,22.87,23.64,5.0,27.0,NaN,0,0,0,1,320.0,350.0
2021-09-28 16:48:00,40.769749,-111.850487,164.1,22.87,23.64,5.0,27.0,NaN,0,0,0,1,320.0,350.0
2021-09-28 16:48:05,40.769753,-111.850525,164.2,22.94,23.71,5.0,27.0,NaN,0,0,0,1,320.0,349.0
2021-09-28 16:48:10,40.766258,-111.847679,1474.9,22.94,23.71,5.0,27.0,NaN,0,0,0,1,316.0,352.0
2021-09-28 16:48:15,40.766258,-111.847694,1475.2,22.87,23.64,5.0,27.0,NaN,0,0,0,1,316.0,352.0
2021-09-28 16:48:20,40.766262,-111.847702,1475.2,22.94,23.58,6.0,27.0,NaN,0,0,0,1,316.0,352.0
2021-09-28 16:48:25,40.766266,-111.84771,1475.2,22.87,23.58,5.0,27.0,NaN,0,0,0,1,316.0,352.0
2021-09-28 16:48:30,40.766258,-111.84771,1475.2,22.94,23.64,4.0,27.0,NaN,0,0,0,1,316.0,352.0
2021-09-28 16:48:35,40.766243,-111.84771,1475.1,22.94,23.61,5.0,27.0,NaN,0,0,0,1,316.0,352.0
2021-09-28 16:48:40,40.766258,-111.847694,1474.7,22.94,23.64,5.0,27.0,NaN,0,0,0,1,316.0,352.0
2021-09-28 16:48:45,40.766258,-111.847687,1474.7,22.94,23.58,5.0,27.0,NaN,0,0,0,1,316.0,352.0
2021-09-28 16:48:50,40.766258,-111.847679,1474.7,22.97,23.54,5.0,27.0,NaN,0,0,0,1,316.0,352.0
2021-09-28 16:49:10,40.766273,-111.847641,1474.7,22.94,23.51,5.0,27.0,33.3,0,0,0,1,316.0,352.0
2021-09-28 16:49:15,40.766247,-111.847641,1475.0,22.94,23.51,5.0,27.0,34.1,0,0,0,1,316.0,352.0
2021-09-28 16:49:20,40.766182,-111.847626,1475.2,22.94,23.54,5.0,27.0,31.2,0,0,0,1,316.0,352.0
2021-09-28 16:49:25,40.766155,-111.84761,1475.4,23.01,23.54,5.0,27.0,33.1,0,0,0,1,316.0,352.0
2021-09-28 16:49:30,40.766163,-111.84761,1475.7,23.01,23.58,5.0,27.0,33.9,0,0,0,1,316.0,352.0
2021-09-28 16:49:35,40.766148,-111.847603,1475.8,22.94,23.51,5.0,27.0,32.1,0,0,0,1,316.0,352.0
2021-09-28 16:49:40,40.766159,-111.84761,1476.0,22.97,23.51,5.0,27.0,32.0,0,0,0,1,316.0,352.0
2021-09-28 16:49:45,40.766159,-111.847603,1476.0,22.94,23.51,6.0,27.0,34.4,0,0,0,1,316.0,352.0
2021-09-28 16:49:50,40.766163,-111.847595,1476.0,23.01,23.54,5.0,27.0,32.7,0,0,0,1,316.0,352.0
2021-09-28 16:49:55,40.766171,-111.84758,1476.0,23.01,23.54,5.0,27.0,33.7,0,0,0,1,316.0,352.0
2021-09-28 16:50:00,40.766178,-111.847572,1476.0,23.01,23.51,4.0,27.0,35.5,0,0,0,1,316.0,352.0
2021-09-28 16:50:05,40.766193,-111.847595,1476.0,23.01,23.44,5.0,27.0,33.9,0,0,0,1,316.0,352.0
2021-09-28 16:50:10,40.766193,-111.84761,1475.9,22.97,23.51,5.0,27.0,32.4,0,0,0,1,316.0,352.0
2021-09-28 16:50:15,40.766193,-111.84761,1475.9,23.04,23.51,5.0,27.0,34.0,0,0,0,1,316.0,352.0
2021-09-28 16:50:20,40.766159,-111.847595,1475.7,23.01,23.51,6.0,27.0,31.6,0,0,0,1,316.0,352.0
2021-09-28 16:50:25,40.766186,-111.847618,1475.7,23.08,23.51,6.0,27.0,35.8,0,0,0,1,316.0,352.0
2021-09-28 16:50:30,40.766186,-111.847618,1475.6,23.01,23.51,5.0,27.0,35.0,0,0,0,1,316.0,352.0
2021-09-28 16:50:35,40.766182,-111.847626,1475.6,23.01,23.51,6.0,27.0,31.0,0,0,0,1,316.0,352.0
2021-09-28 16:50:40,40.766178,-111.847633,1475.6,23.08,23.54,5.0,27.0,32.7,0,0,0,1,316.0,352.0
2021-09-28 16:50:45,40.766178,-111.847649,1475.6,23.08,23.51,5.0,27.0,31.1,0,0,0,1,316.0,352.0
2021-09-28 16:50:50,40.766182,-111.847649,1475.7,23.08,23.58,5.0,27.0,35.5,0,0,0,1,316.0,352.0
2021-09-28 16:50:55,40.766182,-111.847649,1475.7,23.04,23.51,5.0,27.0,30.5,0,0,0,1,316.0,352.0
2021-09-28 16:51:00,40.766193,-111.847664,1475.6,23.01,23.51,5.0,27.0,32.6,0,0,0,1,316.0,352.0
2021-09-28 16:51:15,40.766331,-111.847778,1475.5,23.01,23.58,5.0,27.0,31.6,0,0,0,1,316.0,352.0
2021-09-28 16:51:20,40.766449,-111.847885,1476.0,23.01,23.51,5.0,27.0,31.9,0,0,0,1,316.0,352.0
2021-09-28 16:51:25,40.766479,-111.847939,1476.1,23.01,23.58,5.0,27.0,36.1,0,0,0,1,316.0,352.0
2021-09-28 16:51:30,40.766495,-111.847977,1476.1,23.01,23.51,5.0,27.0,34.8,0,0,0,1,316.0,352.0
2021-09-28 16:51:35,40.766544,-111.847961,1476.1,23.08,23.61,5.0,27.0,32.5,0,0,0,1,317.0,352.0
2021-09-28 16:51:40,40.766575,-111.847969,1476.2,23.08,23.61,5.0,27.0,32.8,0,0,0,1,317.0,352.0
2021-09-28 16:51:45,40.766613,-111.847969,1476.4,23.08,23.58,4.0,27.0,32.7,0,0,0,1,317.0,352.0
2021-09-28 16:51:50,40.766617,-111.847954,1476.6,23.01,23.51,4.0,27.0,34.7,0,0,0,1,317.0,352.0
2021-09-28 16:51:55,40.766502,-111.847961,1476.5,23.08,23.54,5.0,27.0,33.7,0,0,0,1,317.0,352.0
2021-09-28 16:52:00,40.766499,-111.847977,1476.5,23.11,23.58,5.0,27.0,33.8,0,0,0,1,316.0,352.0
2021-09-28 16:52:05,40.766499,-111.847977,1476.5,23.08,23.54,5.0,27.0,30.9,0,0,0,1,316.0,352.0
2021-09-28 16:52:10,40.766499,-111.847969,1476.5,23.08,23.58,5.0,27.0,31.4,0,0,0,1,316.0,352.0
2021-09-28 16:52:15,40.766491,-111.847969,1476.5,23.04,23.54,5.0,27.0,31.2,0,0,0,1,316.0,352.0
2021-09-28 16:52:20,40.766472,-111.847946,1476.4,23.08,23.58,4.0,27.0,33.0,0,0,0,1,316.0,352.0
2021-09-28 16:52:25,40.766376,-111.847893,1476.4,23.11,23.58,5.0,27.0,32.5,0,0,0,1,316.0,352.0
2021-09-28 16:52:30,40.766312,-111.847862,1476.4,23.08,23.58,5.0,27.0,32.3,0,0,0,1,316.0,352.0
2021-09-28 16:52:35,40.766304,-111.847801,1476.5,23.14,23.58,5.0,27.0,32.2,0,0,0,1,316.0,352.0
2021-09-28 16:52:40,40.7663,-111.847755,1476.6,23.08,23.54,5.0,27.0,34.1,0,0,0,1,316.0,352.0
2021-09-28 16:52:45,40.766331,-111.84774,1476.6,23.08,23.58,5.0,27.0,34.0,0,0,0,1,316.0,352.0
2021-09-28 16:52:50,40.766277,-111.847733,1476.8,23.14,23.58,5.0,27.0,34.3,0,0,0,1,316.0,352.0
2021-09-28 16:52:55,40.766308,-111.847733,1476.8,23.08,23.61,5.0,27.0,31.3,0,0,0,1,316.0,352.0
2021-09-28 16:53:00,40.766308,-111.847725,1476.8,23.14,23.58,5.0,27.0,32.1,0,0,0,1,316.0,352.0
2021-09-28 16:53:05,40.766315,-111.847717,1476.8,23.08,23.51,5.0,27.0,32.5,0,0,0,1,316.0,352.0
2021-09-28 16:53:10,40.766369,-111.847702,1476.9,23.08,23.51,5.0,27.0,30.9,0,0,0,1,316.0,352.0
2021-09-28 16:53:15,40.766403,-111.847702,1476.9,23.08,23.51,5.0,27.0,32.4,0,0,0,1,316.0,352.0
2021-09-28 16:53:20,40.766521,-111.84761,1475.4,23.08,23.58,5.0,27.0,33.7,0,0,0,1,317.0,352.0
2021-09-28 16:53:25,40.766537,-111.847595,1475.1,23.14,23.58,5.0,27.0,33.8,0,0,0,1,317.0,352.0
2021-09-28 16:53:30,40.766552,-111.847618,1474.6,23.08,23.51,5.0,27.0,31.0,0,0,0,1,317.0,352.0
2021-09-28 16:53:35,40.766575,-111.847649,1474.6,23.08,23.51,5.0,27.0,31.6,0,0,0,1,317.0,352.0
2021-09-28 16:53:40,40.766563,-111.847649,1474.6,23.11,23.51,5.0,27.0,31.7,0,0,0,1,317.0,352.0
2021-09-28 16:53:45,40.766563,-111.847641,1474.6,23.14,23.58,5.0,26.0,30.7,0,0,0,1,317.0,352.0
2021-09-28 16:53:50,40.766567,-111.847633,1474.6,23.14,23.58,5.0,26.0,32.3,0,0,0,1,317.0,352.0
2021-09-28 16:53:55,40.766571,-111.847633,1474.6,23.11,23.51,5.0,26.0,33.7,0,0,0,1,317.0,352.0
2021-09-28 16:54:00,40.766563,-111.847626,1474.6,23.08,23.51,5.0,26.0,27.8,0,0,0,1,317.0,352.0
2021-09-28 16:54:05,40.766533,-111.847649,1474.6,23.08,23.51,4.0,26.0,35.0,0,0,0,1,317.0,352.0
2021-09-28 16:54:10,40.766491,-111.84771,1474.9,23.14,23.54,5.0,26.0,31.4,0,0,0,1,316.0,352.0
2021-09-28 16:54:15,40.766483,-111.847755,1475.0,23.14,23.58,5.0,26.0,31.6,0,0,0,1,316.0,352.0
2021-09-28 16:54:20,40.766483,-111.847748,1474.8,23.14,23.48,5.0,26.0,32.4,0,0,0,1,316.0,352.0
2021-09-28 16:54:25,40.766479,-111.847717,1474.8,23.11,23.51,4.0,26.0,31.5,0,0,0,1,316.0,352.0
2021-09-28 16:54:30,40.766457,-111.847672,1474.8,23.14,23.51,5.0,26.0,33.5,0,0,0,1,316.0,352.0
2021-09-28 16:54:40,40.766361,-111.847595,1474.4,23.14,23.51,5.0,26.0,35.9,0,0,0,1,316.0,352.0
2021-09-28 16:54:45,40.7663,-111.847557,1474.1,23.14,23.51,4.0,26.0,31.9,0,0,0,1,316.0,352.0
2021-09-28 16:54:50,40.766289,-111.847565,1474.0,23.08,23.44,4.0,26.0,37.1,0,0,0,1,316.0,352.0
2021-09-28 16:54:55,40.766289,-111.84758,1473.9,23.14,23.51,5.0,26.0,33.5,0,0,0,1,316.0,352.0
2021-09-28 16:55:00,40.766327,-111.84758,1473.7,23.11,23.48,5.0,26.0,34.0,0,0,0,1,316.0,352.0
2021-09-28 16:55:05,40.766331,-111.84758,1473.6,23.14,23.51,5.0,26.0,35.5,0,0,0,1,316.0,352.0
2021-09-28 16:55:10,40.766331,-111.847565,1473.6,23.18,23.51,4.0,26.0,33.7,0,0,0,1,316.0,352.0
2021-09-28 16:55:15,40.766331,-111.847557,1473.6,23.11,23.44,4.0,26.0,34.8,0,0,0,1,316.0,352.0
2021-09-28 16:55:20,40.766327,-111.847549,1473.6,23.14,23.44,5.0,26.0,33.2,0,0,0,1,316.0,352.0
2021-09-28 16:55:25,40.766327,-111.847542,1473.6,23.11,23.41,5.0,26.0,34.6,0,0,0,1,316.0,352.0
2021-09-28 16:55:30,40.766323,-111.847549,1473.6,23.14,23.48,4.0,26.0,33.3,0,0,0,1,316.0,352.0
2021-09-28 16:55:35,40.766323,-111.847557,1473.6,23.18,23.44,4.0,26.0,31.8,0,0,0,1,316.0,352.0
2021-09-28 16:55:40,40.766327,-111.847565,1473.7,23.08,23.44,5.0,26.0,34.3,0,0,0,1,316.0,352.0
2021-09-28 16:55:45,40.766327,-111.847618,1473.7,23.14,23.44,5.0,26.0,32.6,0,0,0,1,316.0,352.0
2021-09-28 16:55:50,40.766354,-111.847641,1473.7,23.11,23.41,4.0,26.0,31.2,0,0,0,1,316.0,352.0
2021-09-28 16:55:55,40.766315,-111.847618,1473.7,23.14,23.44,4.0,26.0,36.7,0,0,0,1,316.0,352.0
2021-09-28 16:56:00,40.766315,-111.847626,1473.7,23.18,23.51,4.0,26.0,33.6,0,0,0,1,316.0,352.0
2021-09-28 16:56:05,40.766327,-111.847626,1473.7,23.14,23.51,4.0,26.0,31.2,0,0,0,1,316.0,352.0
2021-09-28 16:56:10,40.766323,-111.84761,1473.7,23.14,23.44,4.0,26.0,35.2,0,0,0,1,316.0,352.0
2021-09-28 16:56:15,40.766281,-111.847572,1473.7,23.14,23.41,4.0,26.0,33.5,0,0,0,1,316.0,352.0
2021-09-28 16:56:20,40.766243,-111.847511,1473.7,23.21,23.44,5.0,26.0,31.7,0,0,0,1,316.0,352.0
2021-09-28 16:56:25,40.76614,-111.847359,1473.7,23.21,23.44,5.0,26.0,29.8,0,0,0,1,316.0,353.0
2021-09-28 16:56:30,40.766079,-111.84726,1473.7,23.14,23.44,4.0,26.0,32.0,0,0,0,1,316.0,353.0
2021-09-28 16:57:00,40.765762,-111.84726,1473.8,23.14,23.44,5.0,26.0,33.4,0,0,0,1,316.0,353.0
2021-09-28 16:57:05,40.765869,-111.847321,1473.8,23.14,23.44,5.0,26.0,34.2,0,0,0,1,316.0,353.0
2021-09-28 16:57:10,40.765881,-111.847343,1473.9,23.14,23.44,4.0,26.0,33.4,0,0,0,1,316.0,353.0
2021-09-28 16:57:15,40.765881,-111.847351,1473.9,23.25,23.48,5.0,26.0,34.1,0,0,0,1,316.0,353.0
2021-09-28 16:57:20,40.765793,-111.847237,1473.9,23.21,23.48,4.0,26.0,29.7,0,0,0,1,316.0,353.0
2021-09-28 16:57:25,40.765682,-111.84713,1473.9,23.21,23.41,5.0,26.0,32.5,0,0,0,1,316.0,353.0
2021-09-28 16:57:30,40.765656,-111.847115,1473.9,23.18,23.44,5.0,26.0,31.4,0,0,0,1,316.0,353.0
2021-09-28 16:57:35,40.765667,-111.847145,1474.0,23.18,23.41,4.0,26.0,29.6,0,0,0,1,316.0,353.0
2021-09-28 16:57:40,40.765705,-111.847198,1474.2,23.28,23.44,5.0,26.0,30.5,0,0,0,1,316.0,353.0
2021-09-28 16:57:45,40.765717,-111.847206,1474.1,23.25,23.44,5.0,26.0,34.4,0,0,0,1,316.0,353.0
2021-09-28 16:57:50,40.765717,-111.847214,1474.1,23.25,23.44,5.0,26.0,34.6,0,0,0,1,316.0,353.0
2021-09-28 16:57:55,40.765717,-111.847221,1474.1,23.21,23.44,5.0,26.0,31.2,0,0,0,1,316.0,353.0
2021-09-28 16:58:00,40.765717,-111.847237,1474.1,23.21,23.44,4.0,26.0,31.0,0,0,0,1,316.0,353.0
2021-09-28 16:58:05,40.765717,-111.847229,1474.1,23.28,23.51,4.0,26.0,34.0,0,0,0,1,316.0,353.0
2021-09-28 16:58:10,40.76572,-111.847214,1474.1,23.25,23.48,4.0,26.0,32.1,0,0,0,1,316.0,353.0
2021-09-28 16:58:15,40.765724,-111.847206,1474.1,23.28,23.51,5.0,26.0,32.4,0,0,0,1,316.0,353.0
2021-09-28 16:58:20,40.765751,-111.847244,1474.4,23.21,23.48,4.0,26.0,32.9,0,0,0,1,316.0,353.0
2021-09-28 16:58:25,40.765808,-111.847252,1474.5,23.21,23.51,4.0,26.0,33.3,0,0,0,1,316.0,353.0
2021-09-28 16:58:30,40.76582,-111.847237,1474.5,23.31,23.54,5.0,26.0,35.0,0,0,0,1,316.0,353.0
2021-09-28 16:58:35,40.76593,-111.847343,1475.1,23.31,23.54,5.0,26.0,34.8,0,0,0,1,316.0,353.0
2021-09-28 16:58:40,40.766132,-111.84745,1475.1,23.31,23.58,5.0,26.0,30.2,0,0,0,1,316.0,353.0
2021-09-28 16:58:45,40.766151,-111.847481,1475.1,23.28,23.58,5.0,26.0,31.1,0,0,0,1,316.0,353.0
2021-09-28 16:58:50,40.766159,-111.847481,1475.2,23.28,23.61,5.0,26.0,33.8,0,0,0,1,316.0,353.0
2021-09-28 16:58:55,40.766167,-111.847481,1475.3,23.28,23.64,4.0,26.0,31.1,0,0,0,1,316.0,353.0
2021-09-28 16:59:00,40.766182,-111.847527,1475.4,23.28,23.71,4.0,26.0,30.4,0,0,0,1,316.0,352.0
2021-09-28 16:59:05,40.766193,-111.847565,1475.5,23.35,23.75,5.0,26.0,33.2,0,0,0,1,316.0,352.0
2021-09-28 16:59:10,40.766232,-111.847633,1475.6,23.31,23.78,4.0,26.0,34.0,0,0,0,1,316.0,352.0
2021-09-28 16:59:15,40.76627,-111.847664,1475.7,23.28,23.78,4.0,26.0,31.7,0,0,0,1,316.0,352.0
2021-09-28 16:59:20,40.766327,-111.847694,1475.9,23.35,23.85,5.0,26.0,34.2,0,0,0,1,316.0,352.0
2021-09-28 16:59:25,40.766365,-111.847694,1476.0,23.31,23.85,5.0,26.0,32.5,0,0,0,1,316.0,352.0
2021-09-28 16:59:30,40.766369,-111.847664,1476.2,23.35,23.92,4.0,26.0,31.6,0,0,0,1,316.0,352.0
2021-09-28 16:59:35,40.766384,-111.847672,1476.4,23.35,23.92,4.0,26.0,35.1,0,0,0,1,316.0,352.0
2021-09-28 16:59:40,40.76635,-111.847656,1476.5,23.31,23.92,4.0,26.0,28.1,0,0,0,1,316.0,352.0
2021-09-28 16:59:45,40.766342,-111.847656,1476.6,23.35,23.98,5.0,26.0,29.9,0,0,0,1,316.0,352.0
2021-09-28 16:59:50,40.766312,-111.847649,1476.7,23.35,24.05,5.0,26.0,33.5,0,0,0,1,316.0,352.0
2021-09-28 16:59:55,40.766285,-111.847649,1476.7,23.35,24.12,5.0,26.0,31.0,0,0,0,1,316.0,352.0
2021-09-28 17:00:00,40.766232,-111.847633,1476.8,23.35,24.12,5.0,26.0,32.6,0,0,0,1,316.0,352.0
2021-09-28 17:00:05,40.766159,-111.847603,1476.9,23.35,24.12,5.0,26.0,32.9,0,0,0,1,316.0,352.0
2021-09-28 17:00:10,40.766094,-111.847557,1477.0,23.35,24.12,5.0,26.0,31.2,0,0,0,1,316.0,352.0
2021-09-28 17:00:15,40.766045,-111.847511,1477.1,23.35,24.22,5.0,26.0,34.5,0,0,0,1,316.0,352.0
2021-09-28 17:00:20,40.766048,-111.847481,1477.2,23.38,24.25,6.0,26.0,30.9,0,0,0,1,316.0,353.0
2021-09-28 17:00:25,40.766075,-111.847466,1477.3,23.41,24.25,4.0,26.0,30.9,0,0,0,1,316.0,353.0
2021-09-28 17:00:30,40.766117,-111.847466,1477.4,23.35,24.25,4.0,26.0,30.8,0,0,0,1,316.0,353.0
2021-09-28 17:00:35,40.766136,-111.847458,1477.4,23.35,24.25,4.0,26.0,30.9,0,0,0,1,316.0,353.0
2021-09-28 17:00:40,40.766167,-111.84745,1477.4,23.31,24.25,4.0,26.0,31.7,0,0,0,1,316.0,353.0
2021-09-28 17:00:45,40.76619,-111.847443,1477.4,23.38,24.32,4.0,26.0,33.8,0,0,0,1,316.0,353.0
2021-09-28 17:00:50,40.76622,-111.847466,1477.3,23.41,24.32,5.0,26.0,31.9,0,0,0,1,316.0,353.0
2021-09-28 17:00:55,40.766239,-111.847481,1477.3,23.35,24.25,5.0,26.0,33.2,0,0,0,1,316.0,353.0
2021-09-28 17:01:00,40.766251,-111.847511,1477.2,23.35,24.25,4.0,26.0,32.4,0,0,0,1,316.0,352.0
2021-09-28 17:01:05,40.766296,-111.847542,1477.1,23.35,24.32,5.0,26.0,32.5,0,0,0,1,316.0,352.0
2021-09-28 17:01:10,40.766315,-111.847549,1477.0,23.41,24.39,5.0,26.0,32.2,0,0,0,1,316.0,352.0
2021-09-28 17:01:15,40.766327,-111.847565,1477.2,23.41,24.39,5.0,26.0,30.9,0,0,0,1,316.0,352.0
2021-09-28 17:01:20,40.766315,-111.847641,1477.1,23.35,24.39,5.0,26.0,31.8,0,0,0,1,316.0,352.0
2021-09-28 17:01:25,40.766315,-111.847656,1477.1,23.35,24.39,6.0,26.0,33.5,0,0,0,1,316.0,352.0
2021-09-28 17:01:30,40.766312,-111.847672,1477.1,23.35,24.39,4.0,26.0,34.4,0,0,0,1,316.0,352.0
2021-09-28 17:01:35,40.766308,-111.847672,1477.1,23.41,24.46,4.0,26.0,33.1,0,0,0,1,316.0,352.0
2021-09-28 17:01:40,40.766304,-111.847687,1477.1,23.41,24.46,5.0,26.0,29.8,0,0,0,1,316.0,352.0
2021-09-28 17:01:45,40.766315,-111.847725,1477.1,23.38,24.49,5.0,26.0,30.5,0,0,0,1,316.0,352.0
2021-09-28 17:01:50,40.766327,-111.847733,1477.4,23.35,24.39,4.0,26.0,31.9,0,0,0,1,316.0,352.0
2021-09-28 17:01:55,40.766335,-111.847702,1478.3,23.35,24.39,5.0,26.0,33.4,0,0,0,1,316.0,352.0
2021-09-28 17:02:00,40.766346,-111.847694,1478.3,23.41,24.46,5.0,26.0,33.2,0,0,0,1,316.0,352.0
2021-09-28 17:02:05,40.766357,-111.847694,1478.3,23.41,24.46,5.0,26.0,32.4,0,0,0,1,316.0,352.0
2021-09-28 17:02:10,40.766365,-111.847702,1478.3,23.38,24.46,5.0,26.0,33.5,0,0,0,1,316.0,352.0
2021-09-28 17:02:15,40.76638,-111.847702,1478.4,23.35,24.46,5.0,26.0,31.6,0,0,0,1,316.0,352.0
2021-09-28 17:02:20,40.766411,-111.847694,1478.4,23.35,24.46,4.0,26.0,31.2,0,0,0,1,316.0,352.0
2021-09-28 17:02:25,40.76643,-111.847778,1478.6,23.35,24.53,5.0,26.0,34.1,0,0,0,1,316.0,352.0
2021-09-28 17:02:30,40.766468,-111.847931,1479.0,23.41,24.53,6.0,26.0,31.1,0,0,0,1,316.0,352.0
2021-09-28 17:02:35,40.766457,-111.847954,1479.2,23.38,24.53,5.0,26.0,31.9,0,0,0,1,316.0,352.0
2021-09-28 17:02:40,40.766453,-111.848015,1479.2,23.38,24.53,5.0,26.0,28.1,0,0,0,1,316.0,352.0
2021-09-28 17:02:45,40.766445,-111.848106,1479.1,23.35,24.46,5.0,26.0,32.4,0,0,0,1,316.0,352.0
2021-09-28 17:02:50,40.766438,-111.84819,1479.1,23.35,24.53,5.0,26.0,31.2,0,0,0,1,316.0,352.0
2021-09-28 17:03:35,40.766464,-111.848648,1480.2,23.35,24.59,5.0,26.0,31.4,0,0,0,1,316.0,351.0
2021-09-28 17:03:40,40.766418,-111.848557,1480.3,23.35,24.59,5.0,26.0,33.7,0,0,0,1,316.0,351.0
2021-09-28 17:04:05,40.766247,-111.848,1480.2,23.38,24.66,5.0,26.0,32.0,0,0,0,1,316.0,352.0
2021-09-28 17:04:10,40.766224,-111.847824,1480.2,23.41,24.66,4.0,26.0,34.2,0,0,0,1,316.0,352.0
2021-09-28 17:04:15,40.766228,-111.847801,1480.3,23.41,24.73,5.0,26.0,31.6,0,0,0,1,316.0,352.0
2021-09-28 17:04:20,40.766205,-111.847748,1480.4,23.41,24.73,5.0,26.0,29.5,0,0,0,1,316.0,352.0
2021-09-28 17:04:25,40.766205,-111.847755,1480.5,23.38,24.73,5.0,26.0,31.0,0,0,0,1,316.0,352.0
2021-09-28 17:04:30,40.766201,-111.847748,1480.6,23.38,24.73,4.0,26.0,31.8,0,0,0,1,316.0,352.0
2021-09-28 17:04:35,40.76619,-111.84771,1480.7,23.38,24.73,5.0,26.0,33.9,0,0,0,1,316.0,352.0
2021-09-28 17:04:40,40.766224,-111.84771,1480.9,23.41,24.8,5.0,26.0,30.6,0,0,0,1,316.0,352.0
2021-09-28 17:04:45,40.766247,-111.847725,1481.1,23.41,24.8,4.0,26.0,30.0,0,0,0,1,316.0,352.0
2021-09-28 17:04:50,40.766258,-111.847717,1481.3,23.38,24.8,4.0,26.0,32.7,0,0,0,1,316.0,352.0
2021-09-28 17:04:55,40.766273,-111.847733,1481.6,23.41,24.73,4.0,26.0,30.4,0,0,0,1,316.0,352.0
2021-09-28 17:05:00,40.766281,-111.84771,1481.9,23.38,24.73,4.0,26.0,32.3,0,0,0,1,316.0,352.0
2021-09-28 17:05:05,40.766281,-111.847679,1482.1,23.41,24.8,4.0,26.0,31.4,0,0,0,1,316.0,352.0
2021-09-28 17:05:10,40.766281,-111.847656,1482.4,23.41,24.8,4.0,26.0,32.0,0,0,0,1,316.0,352.0
2021-09-28 17:05:15,40.766296,-111.847672,1482.5,23.41,24.8,5.0,26.0,31.5,0,0,0,1,316.0,352.0
2021-09-28 17:05:20,40.766304,-111.847664,1482.6,23.35,24.8,5.0,26.0,30.0,0,0,0,1,316.0,352.0
2021-09-28 17:05:25,40.766312,-111.847656,1482.7,23.41,24.8,5.0,26.0,33.2,0,0,0,1,316.0,352.0
2021-09-28 17:05:30,40.766315,-111.847649,1482.7,23.41,24.86,5.0,26.0,30.8,0,0,0,1,316.0,352.0
2021-09-28 17:05:35,40.766312,-111.847633,1482.7,23.41,24.86,5.0,26.0,33.2,0,0,0,1,316.0,352.0
2021-09-28 17:05:40,40.766308,-111.847618,1482.7,23.41,24.86,5.0,26.0,32.3,0,0,0,1,316.0,352.0
2021-09-28 17:05:45,40.766304,-111.84761,1482.7,23.41,24.86,4.0,26.0,30.9,0,0,0,1,316.0,352.0
2021-09-28 17:05:50,40.766304,-111.847603,1482.7,23.41,24.86,5.0,26.0,33.4,0,0,0,1,316.0,352.0
2021-09-28 17:05:55,40.766304,-111.847595,1482.7,23.41,24.9,5.0,26.0,30.0,0,0,0,1,316.0,352.0
2021-09-28 17:06:00,40.766308,-111.847588,1482.7,23.45,24.9,4.0,26.0,31.7,0,0,0,1,316.0,352.0
2021-09-28 17:06:05,40.766315,-111.84758,1482.7,23.41,24.93,4.0,26.0,33.2,0,0,0,1,316.0,352.0
2021-09-28 17:06:10,40.766323,-111.847572,1482.7,23.41,24.93,5.0,26.0,31.6,0,0,0,1,316.0,352.0
2021-09-28 17:06:15,40.766319,-111.847565,1482.7,23.41,24.9,5.0,26.0,31.2,0,0,0,1,316.0,352.0
2021-09-28 17:06:20,40.766308,-111.847565,1482.7,23.38,24.93,5.0,26.0,30.3,0,0,0,1,316.0,352.0
2021-09-28 17:06:25,40.7663,-111.847565,1482.7,23.45,24.93,4.0,26.0,32.6,0,0,0,1,316.0,352.0
2021-09-28 17:06:30,40.766296,-111.847565,1482.7,23.41,24.93,4.0,26.0,32.3,0,0,0,1,316.0,352.0
2021-09-28 17:06:35,40.7663,-111.847565,1482.7,23.41,24.97,5.0,26.0,32.0,0,0,0,1,316.0,352.0
2021-09-28 17:06:40,40.766315,-111.847549,1482.5,23.41,24.93,4.0,26.0,31.9,0,0,0,1,316.0,352.0
2021-09-28 17:06:45,40.766376,-111.84758,1482.3,23.38,24.93,4.0,26.0,33.2,0,0,0,1,316.0,352.0
2021-09-28 17:06:50,40.76646,-111.847687,1482.0,23.48,25.03,4.0,26.0,32.7,0,0,0,1,316.0,352.0
2021-09-28 17:06:55,40.766533,-111.847778,1482.0,23.41,25.0,4.0,26.0,34.4,0,0,0,1,317.0,352.0
2021-09-28 17:07:00,40.766602,-111.847847,1482.1,23.41,25.0,5.0,27.0,30.8,0,0,0,1,317.0,352.0
2021-09-28 17:07:05,40.766651,-111.8479,1482.1,23.41,24.93,5.0,26.0,29.9,0,0,0,1,317.0,352.0
2021-09-28 17:07:10,40.766682,-111.847939,1482.0,23.41,25.0,4.0,26.0,32.3,0,0,0,1,317.0,352.0
2021-09-28 17:07:15,40.76672,-111.847969,1482.0,23.48,25.0,3.0,26.0,30.3,0,0,0,1,317.0,352.0
2021-09-28 17:07:20,40.766697,-111.847931,1481.9,23.48,25.0,4.0,26.0,31.5,0,0,0,1,317.0,352.0
2021-09-28 17:07:25,40.766659,-111.84787,1481.9,23.48,25.03,4.0,26.0,31.3,0,0,0,1,317.0,352.0
2021-09-28 17:07:30,40.76664,-111.847847,1481.9,23.41,25.0,5.0,26.0,29.1,0,0,0,1,317.0,352.0
2021-09-28 17:07:35,40.766392,-111.847672,1480.9,23.41,25.0,5.0,26.0,30.0,0,0,0,1,316.0,352.0
2021-09-28 17:07:40,40.766205,-111.847534,1480.1,23.52,25.07,5.0,26.0,31.0,0,0,0,1,316.0,352.0
2021-09-28 17:07:45,40.766155,-111.847511,1479.7,23.48,25.07,5.0,26.0,29.4,0,0,0,1,316.0,352.0
2021-09-28 17:07:50,40.766167,-111.847527,1479.4,23.48,25.07,4.0,26.0,32.4,0,0,0,1,316.0,352.0
2021-09-28 17:07:55,40.766163,-111.847534,1479.3,23.45,25.0,5.0,26.0,32.2,0,0,0,1,316.0,352.0
2021-09-28 17:08:00,40.766201,-111.847549,1478.9,23.41,25.07,5.0,26.0,33.5,0,0,0,1,316.0,352.0
2021-09-28 17:08:05,40.766212,-111.847565,1479.0,23.45,25.07,5.0,26.0,30.3,0,0,0,1,316.0,352.0
2021-09-28 17:08:10,40.766209,-111.847565,1479.0,23.48,25.14,4.0,26.0,33.4,0,0,0,1,316.0,352.0
2021-09-28 17:08:15,40.766209,-111.847588,1479.0,23.52,25.14,4.0,26.0,30.9,0,0,0,1,316.0,352.0
2021-09-28 17:08:20,40.766232,-111.847618,1478.7,23.45,25.07,5.0,26.0,32.4,0,0,0,1,316.0,352.0
2021-09-28 17:08:25,40.766254,-111.847626,1478.3,23.45,25.1,5.0,26.0,31.0,0,0,0,1,316.0,352.0
2021-09-28 17:08:30,40.766273,-111.847649,1477.9,23.45,25.1,5.0,26.0,32.8,0,0,0,1,316.0,352.0
2021-09-28 17:08:35,40.766304,-111.847656,1477.6,23.48,25.14,4.0,26.0,33.0,0,0,0,1,316.0,352.0
2021-09-28 17:08:40,40.766289,-111.847649,1477.3,23.48,25.2,4.0,27.0,28.1,0,0,0,1,316.0,352.0
2021-09-28 17:08:45,40.7663,-111.847649,1477.3,23.41,25.14,4.0,26.0,32.8,0,0,0,1,316.0,352.0
2021-09-28 17:08:50,40.766312,-111.847664,1477.2,23.41,25.14,5.0,26.0,31.8,0,0,0,1,316.0,352.0
2021-09-28 17:08:55,40.766319,-111.847694,1477.0,23.41,25.14,4.0,26.0,31.9,0,0,0,1,316.0,352.0
2021-09-28 17:09:00,40.766315,-111.847687,1476.7,23.48,25.2,4.0,26.0,29.6,0,0,0,1,316.0,352.0
2021-09-28 17:09:05,40.766304,-111.847702,1476.6,23.48,25.2,4.0,26.0,31.0,0,0,0,1,316.0,352.0
2021-09-28 17:09:10,40.766304,-111.847778,1476.4,23.48,25.2,4.0,26.0,30.1,0,0,0,1,316.0,352.0
2021-09-28 17:09:15,40.766266,-111.847801,1476.2,23.45,25.14,4.0,26.0,30.7,0,0,0,1,316.0,352.0
2021-09-28 17:09:20,40.766552,-111.847893,1475.7,23.48,25.14,4.0,26.0,31.3,0,0,0,1,317.0,352.0
2021-09-28 17:09:25,40.766632,-111.847977,1475.4,23.48,25.2,4.0,26.0,31.3,0,0,0,1,317.0,352.0
2021-09-28 17:09:30,40.766579,-111.847984,1475.2,23.52,25.2,4.0,26.0,31.0,0,0,0,1,317.0,352.0
2021-09-28 17:09:35,40.766563,-111.848,1475.1,23.48,25.2,4.0,27.0,33.9,0,0,0,1,317.0,352.0
2021-09-28 17:09:40,40.766617,-111.84803,1475.0,23.48,25.14,5.0,26.0,30.8,0,0,0,1,317.0,352.0
2021-09-28 17:09:45,40.766693,-111.848038,1474.9,23.48,25.14,4.0,27.0,32.4,0,0,0,1,317.0,352.0
2021-09-28 17:09:50,40.766731,-111.848045,1474.9,23.41,25.17,4.0,26.0,30.0,0,0,0,1,317.0,352.0
2021-09-28 17:09:55,40.766754,-111.848061,1474.8,23.55,25.2,5.0,26.0,31.4,0,0,0,1,317.0,352.0
2021-09-28 17:10:00,40.766785,-111.848068,1474.8,23.55,25.14,4.0,26.0,31.6,0,0,0,1,317.0,352.0